Time,TemperatureF,DewpointF,PressureIn,WindDirection,WindDirectionDegrees,WindSpeedMPH,WindSpeedGustMPH,Humidity,HourlyPrecipIn,Conditions,Clouds,dailyrainin,SoftwareType,DateUTC
2013-05-02 00:01:00,51.4,33.4,30.42,NNW,337,0.0,0.0,50,0.00,,,0.00,WUHU21623XXSP,2013-05-02 04:01:00,
2013-05-02 00:06:00,51.1,33.1,30.42,NNW,337,0.0,0.0,50,0.00,,,0.00,WUHU21623XXSP,2013-05-02 04:06:00,
2013-05-02 00:11:00,50.9,32.9,30.42,NNW,337,0.0,0.0,50,0.00,,,0.00,WUHU21623XXSP,2013-05-02 04:11:00,
2013-05-02 00:16:00,50.7,33.7,30.42,NNW,337,0.0,0.0,52,0.00,,,0.00,WUHU21623XXSP,2013-05-02 04:16:00,
2013-05-02 00:21:00,50.5,33.5,30.42,NNW,337,0.0,0.0,52,0.00,,,0.00,WUHU21623XXSP,2013-05-02 04:21:00,
2013-05-02 00:26:00,50.4,33.4,30.42,NNW,337,0.0,0.0,52,0.00,,,0.00,WUHU21623XXSP,2013-05-02 04:26:00,
2013-05-02 00:31:00,50.2,33.7,30.42,NNW,337,0.0,0.0,53,0.00,,,0.00,WUHU21623XXSP,2013-05-02 04:31:00,
2013-05-02 00:36:00,49.6,33.2,30.42,NNW,337,0.0,0.0,53,0.00,,,0.00,WUHU21623XXSP,2013-05-02 04:36:00,
2013-05-02 00:41:00,49.6,33.2,30.43,NNW,337,0.0,0.0,53,0.00,,,0.00,WUHU21623XXSP,2013-05-02 04:41:00,
2013-05-02 00:46:00,49.5,33.6,30.42,NNW,337,0.0,0.0,54,0.00,,,0.00,WUHU21623XXSP,2013-05-02 04:46:00,
2013-05-02 00:51:00,49.1,33.2,30.42,NNW,337,0.0,0.0,54,0.00,,,0.00,WUHU21623XXSP,2013-05-02 04:51:00,
2013-05-02 00:56:00,48.9,33.5,30.42,NNW,337,0.0,0.0,55,0.00,,,0.00,WUHU21623XXSP,2013-05-02 04:56:00,
2013-05-02 01:01:00,48.6,33.2,30.42,NNW,337,0.0,0.0,55,0.00,,,0.00,WUHU21623XXSP,2013-05-02 05:01:00,
2013-05-02 01:06:00,48.0,33.1,30.41,NNW,337,0.0,0.0,56,0.00,,,0.00,WUHU21623XXSP,2013-05-02 05:06:00,
2013-05-02 01:11:00,47.8,33.4,30.42,NNW,337,0.0,0.0,57,0.00,,,0.00,WUHU21623XXSP,2013-05-02 05:11:00,
2013-05-02 01:16:00,47.7,33.3,30.42,NNW,337,0.0,0.0,57,0.00,,,0.00,WUHU21623XXSP,2013-05-02 05:16:00,
2013-05-02 01:21:00,47.3,33.3,30.42,NNW,337,0.0,0.0,58,0.00,,,0.00,WUHU21623XXSP,2013-05-02 05:21:00,
2013-05-02 01:26:00,47.1,33.1,30.42,NNW,337,0.0,0.0,58,0.00,,,0.00,WUHU21623XXSP,2013-05-02 05:26:00,
2013-05-02 01:31:00,46.8,33.3,30.42,NNW,337,0.0,0.0,59,0.00,,,0.00,WUHU21623XXSP,2013-05-02 05:31:00,
2013-05-02 01:36:00,46.8,33.3,30.42,NNW,337,0.0,0.0,59,0.00,,,0.00,WUHU21623XXSP,2013-05-02 05:36:00,
2013-05-02 01:41:00,46.6,33.1,30.42,NNW,337,0.0,0.0,59,0.00,,,0.00,WUHU21623XXSP,2013-05-02 05:41:00,
2013-05-02 01:46:00,46.6,33.5,30.42,NNW,337,0.0,0.0,60,0.00,,,0.00,WUHU21623XXSP,2013-05-02 05:46:00,
2013-05-02 01:51:00,46.6,33.5,30.41,NNW,337,0.0,0.0,60,0.00,,,0.00,WUHU21623XXSP,2013-05-02 05:51:00,
2013-05-02 01:56:00,46.2,33.2,30.41,NNW,337,0.0,0.0,60,0.00,,,0.00,WUHU21623XXSP,2013-05-02 05:56:00,
2013-05-02 02:01:00,46.0,33.0,30.41,NNW,337,0.0,0.0,60,0.00,,,0.00,WUHU21623XXSP,2013-05-02 06:01:00,
2013-05-02 02:06:00,45.5,32.5,30.42,NNW,337,0.0,0.0,60,0.00,,,0.00,WUHU21623XXSP,2013-05-02 06:06:00,
2013-05-02 02:11:00,45.3,32.7,30.42,NNW,337,0.0,0.0,61,0.00,,,0.00,WUHU21623XXSP,2013-05-02 06:11:00,
2013-05-02 02:16:00,45.1,32.5,30.42,NNW,337,0.0,0.0,61,0.00,,,0.00,WUHU21623XXSP,2013-05-02 06:16:00,
2013-05-02 02:21:00,45.0,32.4,30.42,NNW,337,0.0,0.0,61,0.00,,,0.00,WUHU21623XXSP,2013-05-02 06:21:00,
2013-05-02 02:26:00,45.0,32.8,30.42,NNW,337,0.0,0.0,62,0.00,,,0.00,WUHU21623XXSP,2013-05-02 06:26:00,
2013-05-02 02:31:00,44.8,32.7,30.41,NNW,337,0.0,0.0,62,0.00,,,0.00,WUHU21623XXSP,2013-05-02 06:31:00,
2013-05-02 02:36:00,44.6,32.5,30.42,NNW,337,0.0,0.0,62,0.00,,,0.00,WUHU21623XXSP,2013-05-02 06:36:00,
2013-05-02 02:41:00,44.2,32.1,30.41,NNW,337,0.0,0.0,62,0.00,,,0.00,WUHU21623XXSP,2013-05-02 06:41:00,
2013-05-02 02:46:00,44.1,32.4,30.41,NNW,337,0.0,0.0,63,0.00,,,0.00,WUHU21623XXSP,2013-05-02 06:46:00,
2013-05-02 02:51:00,43.9,32.2,30.41,NNW,337,0.0,0.0,63,0.00,,,0.00,WUHU21623XXSP,2013-05-02 06:51:00,
2013-05-02 02:56:00,43.7,32.0,30.41,NNW,337,0.0,0.0,63,0.00,,,0.00,WUHU21623XXSP,2013-05-02 06:56:00,
2013-05-02 03:01:00,43.7,32.4,30.41,NNW,337,0.0,0.0,64,0.00,,,0.00,WUHU21623XXSP,2013-05-02 07:01:00,
2013-05-02 03:06:00,43.5,32.6,30.41,NNW,337,0.0,0.0,65,0.00,,,0.00,WUHU21623XXSP,2013-05-02 07:06:00,
2013-05-02 03:11:00,43.3,32.4,30.41,NNW,337,0.0,0.0,65,0.00,,,0.00,WUHU21623XXSP,2013-05-02 07:11:00,
2013-05-02 03:16:00,43.2,32.3,30.40,NNW,337,0.0,0.0,65,0.00,,,0.00,WUHU21623XXSP,2013-05-02 07:16:00,
2013-05-02 03:21:00,43.0,32.1,30.40,NNW,337,0.0,0.0,65,0.00,,,0.00,WUHU21623XXSP,2013-05-02 07:21:00,
2013-05-02 03:26:00,42.8,32.3,30.40,NNW,337,0.0,0.0,66,0.00,,,0.00,WUHU21623XXSP,2013-05-02 07:26:00,
2013-05-02 03:31:00,42.6,32.1,30.40,NNW,337,0.0,0.0,66,0.00,,,0.00,WUHU21623XXSP,2013-05-02 07:31:00,
2013-05-02 03:36:00,42.4,31.9,30.40,NNW,337,0.0,0.0,66,0.00,,,0.00,WUHU21623XXSP,2013-05-02 07:36:00,
2013-05-02 03:41:00,42.4,31.9,30.40,NNW,337,0.0,0.0,66,0.00,,,0.00,WUHU21623XXSP,2013-05-02 07:41:00,
2013-05-02 03:46:00,42.3,32.2,30.39,NNW,337,0.0,0.0,67,0.00,,,0.00,WUHU21623XXSP,2013-05-02 07:46:00,
2013-05-02 03:51:00,42.1,32.0,30.40,NNW,337,0.0,0.0,67,0.00,,,0.00,WUHU21623XXSP,2013-05-02 07:51:00,
2013-05-02 03:56:00,41.9,31.8,30.40,NNW,337,0.0,0.0,67,0.00,,,0.00,WUHU21623XXSP,2013-05-02 07:56:00,
2013-05-02 04:01:00,41.9,31.8,30.41,NNW,337,0.0,0.0,67,0.00,,,0.00,WUHU21623XXSP,2013-05-02 08:01:00,
2013-05-02 04:06:00,41.7,32.0,30.40,NNW,337,0.0,0.0,68,0.00,,,0.00,WUHU21623XXSP,2013-05-02 08:06:00,
2013-05-02 04:11:00,41.5,31.8,30.40,NNW,337,0.0,0.0,68,0.00,,,0.00,WUHU21623XXSP,2013-05-02 08:11:00,
2013-05-02 04:16:00,41.4,32.1,30.41,NNW,337,0.0,0.0,69,0.00,,,0.00,WUHU21623XXSP,2013-05-02 08:16:00,
2013-05-02 04:21:00,41.2,31.9,30.41,NNW,337,0.0,0.0,69,0.00,,,0.00,WUHU21623XXSP,2013-05-02 08:21:00,
2013-05-02 04:26:00,41.2,31.9,30.41,NNW,337,0.0,0.0,69,0.00,,,0.00,WUHU21623XXSP,2013-05-02 08:26:00,
2013-05-02 04:31:00,40.8,31.5,30.41,NNW,337,0.0,0.0,69,0.00,,,0.00,WUHU21623XXSP,2013-05-02 08:31:00,
2013-05-02 04:36:00,41.0,32.0,30.41,NNW,337,0.0,0.0,70,0.00,,,0.00,WUHU21623XXSP,2013-05-02 08:36:00,
2013-05-02 04:41:00,40.6,31.7,30.41,NNW,337,0.0,0.0,70,0.00,,,0.00,WUHU21623XXSP,2013-05-02 08:41:00,
2013-05-02 04:46:00,40.6,31.7,30.41,NNW,337,0.0,0.0,70,0.00,,,0.00,WUHU21623XXSP,2013-05-02 08:46:00,
2013-05-02 04:51:00,40.6,31.7,30.41,NNW,337,0.0,0.0,70,0.00,,,0.00,WUHU21623XXSP,2013-05-02 08:51:00,
2013-05-02 04:56:00,40.5,31.9,30.41,NNW,337,0.0,0.0,71,0.00,,,0.00,WUHU21623XXSP,2013-05-02 08:56:00,
2013-05-02 05:01:00,40.6,32.0,30.41,NNW,337,0.0,0.0,71,0.00,,,0.00,WUHU21623XXSP,2013-05-02 09:01:00,
2013-05-02 05:06:00,40.6,32.0,30.41,NNW,337,0.0,0.0,71,0.00,,,0.00,WUHU21623XXSP,2013-05-02 09:06:00,
2013-05-02 05:11:00,40.5,31.9,30.41,NNW,337,0.0,0.0,71,0.00,,,0.00,WUHU21623XXSP,2013-05-02 09:11:00,
2013-05-02 05:16:00,40.3,31.7,30.41,NNW,337,0.0,0.0,71,0.00,,,0.00,WUHU21623XXSP,2013-05-02 09:16:00,
2013-05-02 05:21:00,40.3,31.7,30.41,NNW,337,0.0,0.0,71,0.00,,,0.00,WUHU21623XXSP,2013-05-02 09:21:00,
2013-05-02 05:26:00,40.1,31.9,30.41,NNW,337,0.0,0.0,72,0.00,,,0.00,WUHU21623XXSP,2013-05-02 09:26:00,
2013-05-02 05:31:00,39.9,31.7,30.41,NNW,337,0.0,0.0,72,0.00,,,0.00,WUHU21623XXSP,2013-05-02 09:31:00,
2013-05-02 05:36:00,39.9,31.7,30.41,NNW,337,0.0,0.0,72,0.00,,,0.00,WUHU21623XXSP,2013-05-02 09:36:00,
2013-05-02 05:41:00,39.7,31.5,30.41,NNW,337,0.0,0.0,72,0.00,,,0.00,WUHU21623XXSP,2013-05-02 09:41:00,
2013-05-02 05:46:00,39.7,31.5,30.41,NNW,337,0.0,0.0,72,0.00,,,0.00,WUHU21623XXSP,2013-05-02 09:46:00,
2013-05-02 05:51:00,39.7,31.5,30.41,NNW,337,0.0,0.0,72,0.00,,,0.00,WUHU21623XXSP,2013-05-02 09:51:00,
2013-05-02 05:56:00,39.7,31.8,30.41,NNW,337,0.0,0.0,73,0.00,,,0.00,WUHU21623XXSP,2013-05-02 09:56:00,
2013-05-02 06:01:00,39.6,31.7,30.41,NNW,337,0.0,0.0,73,0.00,,,0.00,WUHU21623XXSP,2013-05-02 10:01:00,
2013-05-02 06:06:00,39.6,31.7,30.41,NNW,337,0.0,0.0,73,0.00,,,0.00,WUHU21623XXSP,2013-05-02 10:06:00,
2013-05-02 06:11:00,39.6,31.7,30.41,NNW,337,0.0,0.0,73,0.00,,,0.00,WUHU21623XXSP,2013-05-02 10:11:00,
2013-05-02 06:16:00,39.6,31.7,30.41,NNW,337,0.0,0.0,73,0.00,,,0.00,WUHU21623XXSP,2013-05-02 10:16:00,
2013-05-02 06:21:00,39.6,32.1,30.42,NNW,337,0.0,0.0,74,0.00,,,0.00,WUHU21623XXSP,2013-05-02 10:21:00,
2013-05-02 06:26:00,39.6,32.1,30.41,NNW,337,0.0,0.0,74,0.00,,,0.00,WUHU21623XXSP,2013-05-02 10:26:00,
2013-05-02 06:31:00,39.7,32.2,30.41,NNW,337,0.0,0.0,74,0.00,,,0.00,WUHU21623XXSP,2013-05-02 10:31:00,
2013-05-02 06:36:00,39.7,32.2,30.41,NNW,337,0.0,0.0,74,0.00,,,0.00,WUHU21623XXSP,2013-05-02 10:36:00,
2013-05-02 06:41:00,39.7,32.5,30.41,NNW,337,0.0,0.0,75,0.00,,,0.00,WUHU21623XXSP,2013-05-02 10:41:00,
2013-05-02 06:46:00,39.9,32.7,30.41,NNW,337,0.0,0.0,75,0.00,,,0.00,WUHU21623XXSP,2013-05-02 10:46:00,
2013-05-02 06:51:00,40.1,32.9,30.42,NNW,337,0.0,0.0,75,0.00,,,0.00,WUHU21623XXSP,2013-05-02 10:51:00,
2013-05-02 06:56:00,40.5,33.6,30.42,NNW,337,0.0,0.0,76,0.00,,,0.00,WUHU21623XXSP,2013-05-02 10:56:00,
2013-05-02 07:01:00,40.5,33.6,30.42,NNW,337,0.0,0.0,76,0.00,,,0.00,WUHU21623XXSP,2013-05-02 11:01:00,
2013-05-02 07:06:00,40.8,33.9,30.42,NNW,337,0.0,0.0,76,0.00,,,0.00,WUHU21623XXSP,2013-05-02 11:06:00,
2013-05-02 07:11:00,41.2,34.3,30.42,NNW,337,0.0,0.0,76,0.00,,,0.00,WUHU21623XXSP,2013-05-02 11:11:00,
2013-05-02 07:16:00,41.5,34.5,30.42,NNW,337,0.0,0.0,76,0.00,,,0.00,WUHU21623XXSP,2013-05-02 11:16:00,
2013-05-02 07:21:00,41.9,34.6,30.42,NNW,337,0.0,0.0,75,0.00,,,0.00,WUHU21623XXSP,2013-05-02 11:21:00,
2013-05-02 07:26:00,42.4,35.4,30.42,NNW,337,0.0,0.0,76,0.00,,,0.00,WUHU21623XXSP,2013-05-02 11:26:00,
2013-05-02 07:31:00,43.2,36.2,30.42,NNW,337,0.0,0.0,76,0.00,,,0.00,WUHU21623XXSP,2013-05-02 11:31:00,
2013-05-02 07:36:00,43.7,36.4,30.42,NNW,337,0.0,0.0,75,0.00,,,0.00,WUHU21623XXSP,2013-05-02 11:36:00,
2013-05-02 07:41:00,44.2,36.8,30.42,NNW,337,0.0,0.0,75,0.00,,,0.00,WUHU21623XXSP,2013-05-02 11:41:00,
2013-05-02 07:46:00,45.1,37.7,30.42,NNW,337,0.0,0.0,75,0.00,,,0.00,WUHU21623XXSP,2013-05-02 11:46:00,
2013-05-02 07:51:00,45.7,38.3,30.42,NNW,337,0.0,0.0,75,0.00,,,0.00,WUHU21623XXSP,2013-05-02 11:51:00,
2013-05-02 07:56:00,46.6,38.8,30.42,NNW,337,0.0,0.0,74,0.00,,,0.00,WUHU21623XXSP,2013-05-02 11:56:00,
2013-05-02 08:01:00,47.3,39.2,30.42,NNW,337,0.0,0.0,73,0.00,,,0.00,WUHU21623XXSP,2013-05-02 12:01:00,
2013-05-02 08:06:00,48.2,40.0,30.41,NNE,22,0.0,0.0,73,0.00,,,0.00,WUHU21623XXSP,2013-05-02 12:06:00,
2013-05-02 08:11:00,50.7,41.4,30.41,WSW,247,0.0,0.0,70,0.00,,,0.00,WUHU21623XXSP,2013-05-02 12:11:00,
2013-05-02 08:16:00,51.6,39.9,30.42,WSW,247,0.0,0.0,64,0.00,,,0.00,WUHU21623XXSP,2013-05-02 12:16:00,
2013-05-02 08:21:00,52.7,41.4,30.41,West,270,0.0,0.0,65,0.00,,,0.00,WUHU21623XXSP,2013-05-02 12:21:00,
2013-05-02 08:26:00,53.6,40.6,30.42,West,270,0.0,0.0,61,0.00,,,0.00,WUHU21623XXSP,2013-05-02 12:26:00,
2013-05-02 08:31:00,54.5,40.6,30.42,West,270,0.0,0.0,59,0.00,,,0.00,WUHU21623XXSP,2013-05-02 12:31:00,
2013-05-02 08:36:00,55.0,40.1,30.41,West,270,0.0,0.0,57,0.00,,,0.00,WUHU21623XXSP,2013-05-02 12:36:00,
2013-05-02 08:41:00,55.4,38.6,30.41,West,270,0.0,0.0,53,0.00,,,0.00,WUHU21623XXSP,2013-05-02 12:41:00,
2013-05-02 08:46:00,56.1,38.7,30.41,West,270,0.0,0.0,52,0.00,,,0.00,WUHU21623XXSP,2013-05-02 12:46:00,
2013-05-02 08:51:00,56.7,37.7,30.41,West,270,0.0,0.0,49,0.00,,,0.00,WUHU21623XXSP,2013-05-02 12:51:00,
2013-05-02 08:56:00,57.4,37.8,30.40,West,270,0.0,0.0,48,0.00,,,0.00,WUHU21623XXSP,2013-05-02 12:56:00,
2013-05-02 09:01:00,58.5,38.3,30.40,SW,225,0.0,0.0,47,0.00,,,0.00,WUHU21623XXSP,2013-05-02 13:01:00,
2013-05-02 09:06:00,59.4,38.5,30.40,SW,225,0.0,0.0,46,0.00,,,0.00,WUHU21623XXSP,2013-05-02 13:06:00,
2013-05-02 09:11:00,59.7,38.8,30.39,WSW,247,0.0,0.0,46,0.00,,,0.00,WUHU21623XXSP,2013-05-02 13:11:00,
2013-05-02 09:16:00,60.4,38.9,30.39,West,270,0.0,0.0,45,0.00,,,0.00,WUHU21623XXSP,2013-05-02 13:16:00,
2013-05-02 09:21:00,61.2,38.4,30.39,SSW,202,0.0,0.0,43,0.00,,,0.00,WUHU21623XXSP,2013-05-02 13:21:00,
2013-05-02 09:26:00,62.1,38.6,30.39,SSW,202,0.0,0.0,42,0.00,,,0.00,WUHU21623XXSP,2013-05-02 13:26:00,
2013-05-02 09:31:00,63.1,39.5,30.39,SW,225,1.9,3.5,42,0.00,,,0.00,WUHU21623XXSP,2013-05-02 13:31:00,
2013-05-02 09:36:00,63.5,37.9,30.39,SSW,202,0.0,3.5,39,0.00,,,0.00,WUHU21623XXSP,2013-05-02 13:36:00,
2013-05-02 09:41:00,64.9,40.5,30.39,WSW,247,0.0,3.1,41,0.00,,,0.00,WUHU21623XXSP,2013-05-02 13:41:00,
2013-05-02 09:46:00,65.8,41.3,30.39,South,180,1.4,3.3,41,0.00,,,0.00,WUHU21623XXSP,2013-05-02 13:46:00,
2013-05-02 09:51:00,66.2,39.7,30.39,West,270,0.0,4.6,38,0.00,,,0.00,WUHU21623XXSP,2013-05-02 13:51:00,
2013-05-02 09:56:00,67.1,40.5,30.38,WSW,247,1.9,4.6,38,0.00,,,0.00,WUHU21623XXSP,2013-05-02 13:56:00,
2013-05-02 10:01:00,68.2,40.0,30.38,WSW,247,0.0,4.2,36,0.00,,,0.00,WUHU21623XXSP,2013-05-02 14:01:00,
2013-05-02 10:06:00,68.4,40.2,30.38,NE,45,1.4,4.2,36,0.00,,,0.00,WUHU21623XXSP,2013-05-02 14:06:00,
2013-05-02 10:11:00,69.3,39.5,30.38,WSW,247,0.0,3.5,34,0.00,,,0.00,WUHU21623XXSP,2013-05-02 14:11:00,
2013-05-02 10:16:00,69.1,31.7,30.38,West,270,0.0,3.5,25,0.00,,,0.00,WUHU21623XXSP,2013-05-02 14:16:00,
2013-05-02 10:21:00,70.2,35.4,30.38,West,270,0.0,1.8,28,0.00,,,0.00,WUHU21623XXSP,2013-05-02 14:21:00,
2013-05-02 10:26:00,70.7,38.4,30.38,SSW,202,0.5,3.2,31,0.00,,,0.00,WUHU21623XXSP,2013-05-02 14:26:00,
2013-05-02 10:31:00,71.2,38.8,30.38,WSW,247,2.7,5.4,31,0.00,,,0.00,WUHU21623XXSP,2013-05-02 14:31:00,
2013-05-02 10:36:00,71.1,37.0,30.37,SSW,202,0.0,5.4,29,0.00,,,0.00,WUHU21623XXSP,2013-05-02 14:36:00,
2013-05-02 10:41:00,71.6,37.5,30.37,NW,315,3.0,5.4,29,0.00,,,0.00,WUHU21623XXSP,2013-05-02 14:41:00,
2013-05-02 10:46:00,72.0,36.9,30.37,WSW,247,0.0,5.4,28,0.00,,,0.00,WUHU21623XXSP,2013-05-02 14:46:00,
2013-05-02 10:51:00,72.5,36.5,30.37,South,180,0.8,3.8,27,0.00,,,0.00,WUHU21623XXSP,2013-05-02 14:51:00,
2013-05-02 10:56:00,73.6,36.5,30.37,NNE,22,0.0,3.8,26,0.00,,,0.00,WUHU21623XXSP,2013-05-02 14:56:00,
2013-05-02 11:01:00,74.5,38.2,30.37,SSW,202,2.6,3.2,27,0.00,,,0.00,WUHU21623XXSP,2013-05-02 15:01:00,
2013-05-02 11:06:00,74.1,30.4,30.37,West,270,2.0,5.8,20,0.00,,,0.00,WUHU21623XXSP,2013-05-02 15:06:00,
2013-05-02 11:11:00,74.1,30.4,30.36,South,180,4.4,5.8,20,0.00,,,0.00,WUHU21623XXSP,2013-05-02 15:11:00,
2013-05-02 11:16:00,74.3,30.6,30.36,SSW,202,3.8,7.0,20,0.00,,,0.00,WUHU21623XXSP,2013-05-02 15:16:00,
2013-05-02 11:21:00,74.7,30.9,30.36,West,270,5.1,9.2,20,0.00,,,0.00,WUHU21623XXSP,2013-05-02 15:21:00,
2013-05-02 11:26:00,74.7,30.9,30.36,WSW,247,0.0,9.2,20,0.00,,,0.00,WUHU21623XXSP,2013-05-02 15:26:00,
2013-05-02 11:31:00,75.6,31.7,30.35,SW,225,2.1,5.9,20,0.00,,,0.00,WUHU21623XXSP,2013-05-02 15:31:00,
2013-05-02 11:36:00,75.6,31.7,30.35,SW,225,2.8,5.4,20,0.00,,,0.00,WUHU21623XXSP,2013-05-02 15:36:00,
2013-05-02 11:41:00,75.7,31.7,30.35,WSW,247,0.0,5.4,20,0.00,,,0.00,WUHU21623XXSP,2013-05-02 15:41:00,
2013-05-02 11:46:00,77.4,33.1,30.35,NE,45,3.1,5.4,20,0.00,,,0.00,WUHU21623XXSP,2013-05-02 15:46:00,
2013-05-02 11:51:00,77.4,33.1,30.35,West,270,1.3,5.4,20,0.00,,,0.00,WUHU21623XXSP,2013-05-02 15:51:00,
2013-05-02 11:56:00,77.7,33.4,30.35,WNW,292,2.0,5.4,20,0.00,,,0.00,WUHU21623XXSP,2013-05-02 15:56:00,
2013-05-02 12:01:00,76.8,32.6,30.34,SW,225,2.1,5.4,20,0.00,,,0.00,WUHU21623XXSP,2013-05-02 16:01:00,
2013-05-02 12:06:00,77.2,33.0,30.34,West,270,2.3,5.6,20,0.00,,,0.00,WUHU21623XXSP,2013-05-02 16:06:00,
2013-05-02 12:11:00,77.0,32.8,30.34,WSW,247,2.0,5.6,20,0.00,,,0.00,WUHU21623XXSP,2013-05-02 16:11:00,
2013-05-02 12:16:00,77.7,33.4,30.34,SW,225,1.1,6.1,20,0.00,,,0.00,WUHU21623XXSP,2013-05-02 16:16:00,
2013-05-02 12:21:00,77.4,33.1,30.34,WSW,247,0.0,6.1,20,0.00,,,0.00,WUHU21623XXSP,2013-05-02 16:21:00,
2013-05-02 12:26:00,77.7,33.4,30.34,WNW,292,1.9,5.6,20,0.00,,,0.00,WUHU21623XXSP,2013-05-02 16:26:00,
2013-05-02 12:31:00,77.2,33.0,30.33,SW,225,2.1,5.6,20,0.00,,,0.00,WUHU21623XXSP,2013-05-02 16:31:00,
2013-05-02 12:36:00,76.1,32.1,30.34,SSW,202,0.0,5.6,20,0.00,,,0.00,WUHU21623XXSP,2013-05-02 16:36:00,
2013-05-02 12:41:00,76.1,32.1,30.34,SSW,202,0.0,4.0,20,0.00,,,0.00,WUHU21623XXSP,2013-05-02 16:41:00,
2013-05-02 12:46:00,76.1,32.1,30.33,SE,135,0.0,1.5,20,0.00,,,0.00,WUHU21623XXSP,2013-05-02 16:46:00,
2013-05-02 12:51:00,76.6,32.5,30.33,NE,45,0.0,4.2,20,0.00,,,0.00,WUHU21623XXSP,2013-05-02 16:51:00,
2013-05-02 12:56:00,77.2,33.0,30.33,NNE,22,3.6,6.6,20,0.00,,,0.00,WUHU21623XXSP,2013-05-02 16:56:00,
2013-05-02 13:01:00,77.4,33.1,30.33,West,270,5.4,9.5,20,0.00,,,0.00,WUHU21623XXSP,2013-05-02 17:01:00,
2013-05-02 13:06:00,77.7,33.4,30.33,ENE,67,1.8,9.5,20,0.00,,,0.00,WUHU21623XXSP,2013-05-02 17:06:00,
2013-05-02 13:11:00,78.3,33.9,30.33,NE,45,0.0,7.5,20,0.00,,,0.00,WUHU21623XXSP,2013-05-02 17:11:00,
2013-05-02 13:16:00,78.8,34.3,30.33,West,270,4.2,9.3,20,0.00,,,0.00,WUHU21623XXSP,2013-05-02 17:16:00,
2013-05-02 13:21:00,79.2,34.6,30.33,WNW,292,2.4,9.3,20,0.00,,,0.00,WUHU21623XXSP,2013-05-02 17:21:00,
2013-05-02 13:26:00,79.2,34.6,30.33,NE,45,1.5,7.2,20,0.00,,,0.00,WUHU21623XXSP,2013-05-02 17:26:00,
2013-05-02 13:31:00,80.8,36.0,30.33,West,270,4.8,6.4,20,0.00,,,0.00,WUHU21623XXSP,2013-05-02 17:31:00,
2013-05-02 13:36:00,81.1,36.2,30.33,West,270,3.5,11.5,20,0.00,,,0.00,WUHU21623XXSP,2013-05-02 17:36:00,
2013-05-02 13:41:00,81.9,36.9,30.32,West,270,6.7,11.5,20,0.00,,,0.00,WUHU21623XXSP,2013-05-02 17:41:00,
2013-05-02 13:46:00,82.6,37.4,30.32,North,0,3.3,10.8,20,0.00,,,0.00,WUHU21623XXSP,2013-05-02 17:46:00,
2013-05-02 13:51:00,82.0,36.9,30.32,NE,45,3.7,10.8,20,0.00,,,0.00,WUHU21623XXSP,2013-05-02 17:51:00,
2013-05-02 13:56:00,82.6,37.4,30.32,NE,45,5.1,11.9,20,0.00,,,0.00,WUHU21623XXSP,2013-05-02 17:56:00,
2013-05-02 14:01:00,82.0,36.9,30.32,NNE,22,3.6,11.9,20,0.00,,,0.00,WUHU21623XXSP,2013-05-02 18:01:00,
2013-05-02 14:06:00,82.6,37.4,30.32,NNE,22,5.6,10.5,20,0.00,,,0.00,WUHU21623XXSP,2013-05-02 18:06:00,
2013-05-02 14:11:00,82.9,37.7,30.32,WNW,292,4.8,14.4,20,0.00,,,0.00,WUHU21623XXSP,2013-05-02 18:11:00,
2013-05-02 14:16:00,83.1,37.9,30.32,WNW,292,1.8,14.4,20,0.00,,,0.00,WUHU21623XXSP,2013-05-02 18:16:00,
2013-05-02 14:21:00,83.7,38.3,30.31,NW,315,0.8,12.1,20,0.00,,,0.00,WUHU21623XXSP,2013-05-02 18:21:00,
2013-05-02 14:26:00,82.9,37.7,30.31,NNE,22,1.7,13.5,20,0.00,,,0.00,WUHU21623XXSP,2013-05-02 18:26:00,
2013-05-02 14:31:00,81.9,36.9,30.31,NNE,22,6.4,13.5,20,0.00,,,0.00,WUHU21623XXSP,2013-05-02 18:31:00,
2013-05-02 14:36:00,80.8,36.0,30.31,NNW,337,8.4,14.2,20,0.00,,,0.00,WUHU21623XXSP,2013-05-02 18:36:00,
2013-05-02 14:41:00,80.2,35.5,30.31,ENE,67,5.7,14.2,20,0.00,,,0.00,WUHU21623XXSP,2013-05-02 18:41:00,
2013-05-02 14:47:00,80.2,35.5,30.31,NE,45,1.7,13.4,20,0.00,,,0.00,WUHU21623XXSP,2013-05-02 18:47:00,
2013-05-02 14:52:00,81.5,36.5,30.31,West,270,5.1,13.4,20,0.00,,,0.00,WUHU21623XXSP,2013-05-02 18:52:00,
2013-05-02 14:57:00,81.5,36.5,30.31,NW,315,4.8,13.1,20,0.00,,,0.00,WUHU21623XXSP,2013-05-02 18:57:00,
2013-05-02 15:02:00,81.9,36.9,30.31,West,270,8.1,12.1,20,0.00,,,0.00,WUHU21623XXSP,2013-05-02 19:02:00,
2013-05-02 15:07:00,82.6,37.4,30.31,WSW,247,6.1,12.1,20,0.00,,,0.00,WUHU21623XXSP,2013-05-02 19:07:00,
2013-05-02 15:12:00,83.1,37.9,30.31,NNE,22,6.0,10.2,20,0.00,,,0.00,WUHU21623XXSP,2013-05-02 19:12:00,
2013-05-02 15:17:00,83.5,38.2,30.31,SE,135,2.0,13.1,20,0.00,,,0.00,WUHU21623XXSP,2013-05-02 19:17:00,
2013-05-02 15:22:00,82.0,36.9,30.32,NNE,22,5.8,17.9,20,0.00,,,0.00,WUHU21623XXSP,2013-05-02 19:22:00,
2013-05-02 15:27:00,79.3,37.1,30.32,NNW,337,7.1,18.7,22,0.00,,,0.00,WUHU21623XXSP,2013-05-02 19:27:00,
2013-05-02 15:32:00,77.0,39.4,30.33,WNW,292,3.2,18.7,26,0.00,,,0.00,WUHU21623XXSP,2013-05-02 19:32:00,
2013-05-02 15:37:00,75.9,41.2,30.33,WSW,247,6.3,16.9,29,0.00,,,0.00,WUHU21623XXSP,2013-05-02 19:37:00,
2013-05-02 15:42:00,74.8,41.1,30.34,WNW,292,5.4,11.9,30,0.00,,,0.00,WUHU21623XXSP,2013-05-02 19:42:00,
2013-05-02 15:47:00,74.5,42.5,30.34,NNE,22,4.9,22.3,32,0.00,,,0.00,WUHU21623XXSP,2013-05-02 19:47:00,
2013-05-02 15:52:00,74.7,42.7,30.34,East,90,6.5,22.3,32,0.00,,,0.00,WUHU21623XXSP,2013-05-02 19:52:00,
2013-05-02 15:57:00,74.5,41.7,30.35,NNW,337,10.5,17.9,31,0.00,,,0.00,WUHU21623XXSP,2013-05-02 19:57:00,
2013-05-02 16:02:00,74.1,42.2,30.35,West,270,6.0,17.9,32,0.00,,,0.00,WUHU21623XXSP,2013-05-02 20:02:00,
2013-05-02 16:07:00,73.4,41.6,30.35,East,90,2.8,16.2,32,0.00,,,0.00,WUHU21623XXSP,2013-05-02 20:07:00,
2013-05-02 16:12:00,73.2,42.2,30.35,SE,135,8.4,17.5,33,0.00,,,0.00,WUHU21623XXSP,2013-05-02 20:12:00,
2013-05-02 16:17:00,72.5,40.0,30.35,NW,315,2.8,17.5,31,0.00,,,0.00,WUHU21623XXSP,2013-05-02 20:17:00,
2013-05-02 16:22:00,71.8,41.0,30.36,NW,315,2.8,16.8,33,0.00,,,0.00,WUHU21623XXSP,2013-05-02 20:22:00,
2013-05-02 16:27:00,70.7,40.0,30.36,ENE,67,6.6,16.8,33,0.00,,,0.00,WUHU21623XXSP,2013-05-02 20:27:00,
2013-05-02 16:32:00,70.9,39.4,30.37,North,0,11.7,15.6,32,0.00,,,0.00,WUHU21623XXSP,2013-05-02 20:32:00,
2013-05-02 16:37:00,70.0,38.6,30.38,SSW,202,5.2,14.2,32,0.00,,,0.00,WUHU21623XXSP,2013-05-02 20:37:00,
2013-05-02 16:42:00,68.7,38.2,30.38,South,180,0.0,14.2,33,0.00,,,0.00,WUHU21623XXSP,2013-05-02 20:42:00,
2013-05-02 16:47:00,66.9,38.2,30.38,NW,315,4.1,13.6,35,0.00,,,0.00,WUHU21623XXSP,2013-05-02 20:47:00,
2013-05-02 16:52:00,64.9,37.8,30.39,West,270,4.4,13.7,37,0.00,,,0.00,WUHU21623XXSP,2013-05-02 20:52:00,
2013-05-02 16:57:00,64.4,38.7,30.40,NW,315,3.9,13.7,39,0.00,,,0.00,WUHU21623XXSP,2013-05-02 20:57:00,
2013-05-02 17:02:00,64.0,38.4,30.40,WSW,247,3.2,11.7,39,0.00,,,0.00,WUHU21623XXSP,2013-05-02 21:02:00,
2013-05-02 17:07:00,63.5,37.9,30.40,NW,315,0.0,11.7,39,0.00,,,0.00,WUHU21623XXSP,2013-05-02 21:07:00,
2013-05-02 17:12:00,63.0,38.1,30.41,NNE,22,2.1,10.2,40,0.00,,,0.00,WUHU21623XXSP,2013-05-02 21:12:00,
2013-05-02 17:16:00,62.1,38.0,30.41,NE,45,5.4,10.8,41,0.00,,,0.00,WUHU21623XXSP,2013-05-02 21:16:00,
2013-05-02 17:22:00,61.7,37.6,30.41,North,0,2.2,10.8,41,0.00,,,0.00,WUHU21623XXSP,2013-05-02 21:22:00,
2013-05-02 17:27:00,61.2,37.8,30.41,NW,315,8.1,12.5,42,0.00,,,0.00,WUHU21623XXSP,2013-05-02 21:27:00,
2013-05-02 17:32:00,61.0,37.6,30.41,West,270,0.0,12.5,42,0.00,,,0.00,WUHU21623XXSP,2013-05-02 21:32:00,
2013-05-02 17:37:00,60.1,36.8,30.41,South,180,0.3,10.0,42,0.00,,,0.00,WUHU21623XXSP,2013-05-02 21:37:00,
2013-05-02 17:42:00,59.7,37.0,30.41,North,0,5.8,11.3,43,0.00,,,0.00,WUHU21623XXSP,2013-05-02 21:42:00,
2013-05-02 17:47:00,59.4,36.8,30.41,NE,45,1.7,11.3,43,0.00,,,0.00,WUHU21623XXSP,2013-05-02 21:47:00,
2013-05-02 17:52:00,58.6,36.0,30.41,SW,225,0.0,12.9,43,0.00,,,0.00,WUHU21623XXSP,2013-05-02 21:52:00,
2013-05-02 17:57:00,58.5,36.0,30.41,NE,45,4.2,13.1,43,0.00,,,0.00,WUHU21623XXSP,2013-05-02 21:57:00,
2013-05-02 18:02:00,58.1,35.6,30.42,WNW,292,0.0,13.1,43,0.00,,,0.00,WUHU21623XXSP,2013-05-02 22:02:00,
2013-05-02 18:07:00,57.9,35.4,30.42,West,270,1.7,5.9,43,0.00,,,0.00,WUHU21623XXSP,2013-05-02 22:07:00,
2013-05-02 18:12:00,57.9,35.4,30.42,SW,225,6.7,8.4,43,0.00,,,0.00,WUHU21623XXSP,2013-05-02 22:12:00,
2013-05-02 18:17:00,57.6,35.1,30.42,ENE,67,2.1,10.5,43,0.00,,,0.00,WUHU21623XXSP,2013-05-02 22:17:00,
2013-05-02 18:22:00,57.4,35.6,30.42,ENE,67,0.0,10.5,44,0.00,,,0.00,WUHU21623XXSP,2013-05-02 22:22:00,
2013-05-02 18:27:00,56.8,34.4,30.43,North,0,0.0,9.2,43,0.00,,,0.00,WUHU21623XXSP,2013-05-02 22:27:00,
2013-05-02 18:32:00,56.7,34.3,30.43,West,270,0.0,9.2,43,0.00,,,0.00,WUHU21623XXSP,2013-05-02 22:32:00,
2013-05-02 18:37:00,56.7,34.3,30.43,WNW,292,1.9,7.4,43,0.00,,,0.00,WUHU21623XXSP,2013-05-02 22:37:00,
2013-05-02 18:42:00,56.5,34.7,30.43,East,90,0.0,5.9,44,0.00,,,0.00,WUHU21623XXSP,2013-05-02 22:42:00,
2013-05-02 18:47:00,56.5,34.1,30.43,East,90,1.2,7.1,43,0.00,,,0.00,WUHU21623XXSP,2013-05-02 22:47:00,
2013-05-02 18:52:00,56.3,33.4,30.43,East,90,0.0,7.6,42,0.00,,,0.00,WUHU21623XXSP,2013-05-02 22:52:00,
2013-05-02 18:57:00,56.3,33.4,30.43,NW,315,0.0,7.6,42,0.00,,,0.00,WUHU21623XXSP,2013-05-02 22:57:00,
2013-05-02 19:02:00,56.3,33.4,30.43,SSE,157,0.0,6.8,42,0.00,,,0.00,WUHU21623XXSP,2013-05-02 23:02:00,
2013-05-02 19:07:00,56.1,33.2,30.44,SSE,157,3.3,4.9,42,0.00,,,0.00,WUHU21623XXSP,2013-05-02 23:07:00,
2013-05-02 19:12:00,56.1,33.2,30.44,SSE,157,0.0,4.9,42,0.00,,,0.00,WUHU21623XXSP,2013-05-02 23:12:00,
2013-05-02 19:17:00,55.9,33.0,30.44,NE,45,0.0,4.6,42,0.00,,,0.00,WUHU21623XXSP,2013-05-02 23:17:00,
2013-05-02 19:22:00,55.8,32.9,30.44,NE,45,0.0,3.6,42,0.00,,,0.00,WUHU21623XXSP,2013-05-02 23:22:00,
2013-05-02 19:27:00,55.8,32.3,30.44,NNW,337,0.8,3.9,41,0.00,,,0.00,WUHU21623XXSP,2013-05-02 23:27:00,
2013-05-02 19:32:00,55.6,32.1,30.44,ESE,112,0.0,3.9,41,0.00,,,0.00,WUHU21623XXSP,2013-05-02 23:32:00,
2013-05-02 19:37:00,55.6,32.1,30.44,ESE,112,0.0,2.9,41,0.00,,,0.00,WUHU21623XXSP,2013-05-02 23:37:00,
2013-05-02 19:42:00,55.4,31.3,30.44,ENE,67,0.0,4.4,40,0.00,,,0.00,WUHU21623XXSP,2013-05-02 23:42:00,
2013-05-02 19:47:00,55.0,30.9,30.44,West,270,0.3,4.4,40,0.00,,,0.00,WUHU21623XXSP,2013-05-02 23:47:00,
2013-05-02 19:52:00,54.9,30.8,30.45,ESE,112,0.0,5.8,40,0.00,,,0.00,WUHU21623XXSP,2013-05-02 23:52:00,
2013-05-02 19:57:00,54.9,30.2,30.45,ENE,67,0.0,7.1,39,0.00,,,0.00,WUHU21623XXSP,2013-05-02 23:57:00,
2013-05-02 20:02:00,54.5,29.9,30.45,NNE,22,0.0,7.1,39,0.00,,,0.00,WUHU21623XXSP,2013-05-03 00:02:00,
2013-05-02 20:07:00,54.5,29.2,30.45,WSW,247,0.0,4.9,38,0.00,,,0.00,WUHU21623XXSP,2013-05-03 00:07:00,
2013-05-02 20:12:00,54.5,29.2,30.45,WSW,247,0.0,2.6,38,0.00,,,0.00,WUHU21623XXSP,2013-05-03 00:12:00,
2013-05-02 20:17:00,54.3,29.0,30.46,WSW,247,0.0,2.6,38,0.00,,,0.00,WUHU21623XXSP,2013-05-03 00:17:00,
2013-05-02 20:22:00,54.3,29.0,30.46,WSW,247,0.0,3.0,38,0.00,,,0.00,WUHU21623XXSP,2013-05-03 00:22:00,
2013-05-02 20:27:00,54.3,29.0,30.46,WSW,247,0.0,3.0,38,0.00,,,0.00,WUHU21623XXSP,2013-05-03 00:27:00,
2013-05-02 20:32:00,54.3,29.0,30.47,NE,45,2.1,9.1,38,0.00,,,0.00,WUHU21623XXSP,2013-05-03 00:32:00,
2013-05-02 20:37:00,54.1,28.2,30.47,NE,45,1.4,9.1,37,0.00,,,0.00,WUHU21623XXSP,2013-05-03 00:37:00,
2013-05-02 20:42:00,54.0,26.7,30.47,NNE,22,0.0,6.5,35,0.00,,,0.00,WUHU21623XXSP,2013-05-03 00:42:00,
2013-05-02 20:47:00,54.0,26.0,30.47,North,0,0.5,8.6,34,0.00,,,0.00,WUHU21623XXSP,2013-05-03 00:47:00,
2013-05-02 20:52:00,54.0,26.0,30.47,NNE,22,4.9,8.6,34,0.00,,,0.00,WUHU21623XXSP,2013-05-03 00:52:00,
2013-05-02 20:57:00,54.0,26.0,30.47,WNW,292,0.0,8.4,34,0.00,,,0.00,WUHU21623XXSP,2013-05-03 00:57:00,
2013-05-02 21:02:00,54.0,26.0,30.47,NNW,337,0.0,6.1,34,0.00,,,0.00,WUHU21623XXSP,2013-05-03 01:02:00,
2013-05-02 21:07:00,53.8,25.1,30.47,North,0,0.0,4.0,33,0.00,,,0.00,WUHU21623XXSP,2013-05-03 01:07:00,
2013-05-02 21:12:00,53.8,25.1,30.47,WNW,292,0.0,2.1,33,0.00,,,0.00,WUHU21623XXSP,2013-05-03 01:12:00,
2013-05-02 21:17:00,53.8,24.4,30.48,WNW,292,3.9,3.9,32,0.00,,,0.00,WUHU21623XXSP,2013-05-03 01:17:00,
2013-05-02 21:22:00,53.4,23.3,30.48,NNW,337,0.0,5.0,31,0.00,,,0.00,WUHU21623XXSP,2013-05-03 01:22:00,
2013-05-02 21:27:00,53.4,24.0,30.47,NNW,337,0.0,5.0,32,0.00,,,0.00,WUHU21623XXSP,2013-05-03 01:27:00,
2013-05-02 21:32:00,53.4,24.0,30.48,NNW,337,0.0,2.9,32,0.00,,,0.00,WUHU21623XXSP,2013-05-03 01:32:00,
2013-05-02 21:37:00,53.4,24.8,30.48,NNW,337,0.0,3.3,33,0.00,,,0.00,WUHU21623XXSP,2013-05-03 01:37:00,
2013-05-02 21:42:00,53.4,24.8,30.47,NNW,337,0.0,3.3,33,0.00,,,0.00,WUHU21623XXSP,2013-05-03 01:42:00,
2013-05-02 21:47:00,53.2,24.6,30.47,NNW,337,0.0,0.0,33,0.00,,,0.00,WUHU21623XXSP,2013-05-03 01:47:00,
2013-05-02 21:52:00,53.2,25.3,30.47,NNW,337,0.0,0.0,34,0.00,,,0.00,WUHU21623XXSP,2013-05-03 01:52:00,
2013-05-02 21:57:00,53.2,25.3,30.47,NNW,337,0.0,0.0,34,0.00,,,0.00,WUHU21623XXSP,2013-05-03 01:57:00,
2013-05-02 22:02:00,53.1,25.2,30.47,NNW,337,0.0,2.9,34,0.00,,,0.00,WUHU21623XXSP,2013-05-03 02:02:00,
2013-05-02 22:07:00,52.7,24.9,30.46,NNW,337,0.0,2.9,34,0.00,,,0.00,WUHU21623XXSP,2013-05-03 02:07:00,
2013-05-02 22:12:00,52.9,25.0,30.47,NNW,337,0.0,2.0,34,0.00,,,0.00,WUHU21623XXSP,2013-05-03 02:12:00,
2013-05-02 22:17:00,52.7,25.6,30.47,NNW,337,0.0,3.2,35,0.00,,,0.00,WUHU21623XXSP,2013-05-03 02:17:00,
2013-05-02 22:22:00,52.7,25.6,30.47,NNW,337,0.0,3.2,35,0.00,,,0.00,WUHU21623XXSP,2013-05-03 02:22:00,
2013-05-02 22:27:00,52.5,26.8,30.47,NNW,337,0.0,0.0,37,0.00,,,0.00,WUHU21623XXSP,2013-05-03 02:27:00,
2013-05-02 22:32:00,52.2,26.5,30.47,NNW,337,0.0,0.0,37,0.00,,,0.00,WUHU21623XXSP,2013-05-03 02:32:00,
2013-05-02 22:37:00,52.0,26.3,30.48,NNW,337,0.0,0.0,37,0.00,,,0.00,WUHU21623XXSP,2013-05-03 02:37:00,
2013-05-02 22:42:00,51.4,25.8,30.48,NNW,337,0.0,0.0,37,0.00,,,0.00,WUHU21623XXSP,2013-05-03 02:42:00,
2013-05-02 22:47:00,51.3,26.3,30.48,NNW,337,0.0,0.0,38,0.00,,,0.00,WUHU21623XXSP,2013-05-03 02:47:00,
2013-05-02 22:52:00,51.1,26.8,30.48,NNW,337,0.0,0.0,39,0.00,,,0.00,WUHU21623XXSP,2013-05-03 02:52:00,
2013-05-02 22:57:00,50.7,27.1,30.48,NNW,337,0.0,0.0,40,0.00,,,0.00,WUHU21623XXSP,2013-05-03 02:57:00,
2013-05-02 23:02:00,50.7,27.7,30.48,NNW,337,0.0,0.0,41,0.00,,,0.00,WUHU21623XXSP,2013-05-03 03:02:00,
2013-05-02 23:07:00,50.5,28.1,30.48,NNW,337,0.0,0.0,42,0.00,,,0.00,WUHU21623XXSP,2013-05-03 03:07:00,
2013-05-02 23:12:00,50.4,28.0,30.48,NNW,337,0.0,0.0,42,0.00,,,0.00,WUHU21623XXSP,2013-05-03 03:12:00,
2013-05-02 23:17:00,50.2,27.8,30.48,NNW,337,0.0,0.0,42,0.00,,,0.00,WUHU21623XXSP,2013-05-03 03:17:00,
2013-05-02 23:22:00,49.6,27.9,30.49,NNW,337,0.0,0.0,43,0.00,,,0.00,WUHU21623XXSP,2013-05-03 03:22:00,
2013-05-02 23:27:00,49.3,27.6,30.49,NNW,337,0.0,0.0,43,0.00,,,0.00,WUHU21623XXSP,2013-05-03 03:27:00,
2013-05-02 23:32:00,48.9,28.4,30.49,NNW,337,0.0,0.0,45,0.00,,,0.00,WUHU21623XXSP,2013-05-03 03:32:00,
2013-05-02 23:37:00,48.6,28.1,30.49,NNW,337,0.0,0.0,45,0.00,,,0.00,WUHU21623XXSP,2013-05-03 03:37:00,
2013-05-02 23:42:00,48.0,27.5,30.49,NNW,337,0.0,0.0,45,0.00,,,0.00,WUHU21623XXSP,2013-05-03 03:42:00,
2013-05-02 23:47:00,47.7,27.8,30.49,NNW,337,0.0,0.0,46,0.00,,,0.00,WUHU21623XXSP,2013-05-03 03:47:00,
2013-05-02 23:52:00,47.3,28.0,30.49,NNW,337,0.0,0.0,47,0.00,,,0.00,WUHU21623XXSP,2013-05-03 03:52:00,
2013-05-02 23:57:00,47.3,28.0,30.49,NNW,337,0.0,0.0,47,0.00,,,0.00,WUHU21623XXSP,2013-05-03 03:57:00,